ASL30D LYBE-LYTV

Flight info

Callsign ASL30D
Flight time 0h 37m
Altitude 28000
Route VAL DCT MOJ N732 POD
Aircraft A320/M-SDE3FGHIRWY/LB1

Departure

Time 2026-05-05 15:07
Airport Belgrade Nikola Tesla Airport (LYBE)

Arrival

Time 2026-05-05 15:45
Airport Tivat Airport (LYTV)
Time Latitude Longitude Altitude Speed Heading
2026-05-05 14:48 44.81979 20.29304 321 ft 0 kts 302°
2026-05-05 14:58 44.81978 20.29308 323 ft 2 kts 301°
2026-05-05 14:59 44.81967 20.29332 322 ft 3 kts 302°
2026-05-05 14:59 44.81961 20.29346 321 ft 1 kts 302°
2026-05-05 14:59 44.81956 20.29356 320 ft 1 kts 302°
2026-05-05 14:59 44.81956 20.29358 320 ft 0 kts 302°
2026-05-05 15:00 44.81944 20.29371 322 ft 3 kts 345°
2026-05-05 15:00 44.81933 20.29374 322 ft 2 kts
2026-05-05 15:00 44.81916 20.29370 323 ft 1 kts 30°
2026-05-05 15:00 44.81916 20.29369 322 ft 0 kts 30°
2026-05-05 15:03 44.81922 20.29374 322 ft 5 kts 30°
2026-05-05 15:03 44.81971 20.29415 322 ft 10 kts 31°
2026-05-05 15:03 44.82037 20.29471 323 ft 12 kts 32°
2026-05-05 15:03 44.82114 20.29539 323 ft 14 kts 32°
2026-05-05 15:04 44.82205 20.29618 323 ft 10 kts 32°
2026-05-05 15:04 44.82235 20.29644 322 ft 1 kts 32°
2026-05-05 15:04 44.82237 20.29646 322 ft 0 kts 32°
2026-05-05 15:04 44.82250 20.29658 323 ft 11 kts 32°
2026-05-05 15:05 44.82327 20.29826 322 ft 1 kts 121°
2026-05-05 15:06 44.82236 20.30033 321 ft 69 kts 121°
2026-05-05 15:07 44.81821 20.30968 324 ft 151 kts 122°
2026-05-05 15:07 44.81181 20.32402 791 ft 179 kts 122°
2026-05-05 15:07 44.80396 20.33774 1753 ft 186 kts 147°
2026-05-05 15:07 44.79126 20.34355 2527 ft 201 kts 171°
2026-05-05 15:08 44.77676 20.34597 2927 ft 223 kts 175°
2026-05-05 15:08 44.76055 20.34779 3528 ft 239 kts 176°
2026-05-05 15:08 44.74375 20.34963 4475 ft 243 kts 175°
2026-05-05 15:08 44.72685 20.35165 5431 ft 247 kts 176°
2026-05-05 15:09 44.70965 20.35397 6415 ft 250 kts 176°
2026-05-05 15:09 44.69230 20.35652 7350 ft 252 kts 175°
2026-05-05 15:09 44.67468 20.35929 8251 ft 256 kts 175°
2026-05-05 15:09 44.65686 20.36215 9162 ft 260 kts 175°
2026-05-05 15:10 44.63880 20.36507 10041 ft 263 kts 175°
2026-05-05 15:10 44.62045 20.36801 10824 ft 267 kts 174°
2026-05-05 15:10 44.60183 20.37100 11645 ft 270 kts 174°
2026-05-05 15:10 44.58317 20.37406 12454 ft 273 kts 174°
2026-05-05 15:11 44.56365 20.37489 12896 ft 291 kts 191°
2026-05-05 15:11 44.54458 20.36371 13510 ft 300 kts 217°
2026-05-05 15:11 44.53069 20.34172 14173 ft 306 kts 237°
2026-05-05 15:11 44.51945 20.31625 14870 ft 309 kts 238°
2026-05-05 15:12 44.51197 20.29918 15339 ft 311 kts 238°
2026-05-05 15:12 44.50062 20.27322 16055 ft 314 kts 238°
2026-05-05 15:12 44.48916 20.24698 16759 ft 317 kts 238°
2026-05-05 15:12 44.47379 20.21196 17682 ft 321 kts 238°
2026-05-05 15:13 44.46197 20.18521 18349 ft 324 kts 238°
2026-05-05 15:13 44.45390 20.16705 18741 ft 326 kts 238°
2026-05-05 15:13 44.44184 20.13995 19340 ft 329 kts 239°
2026-05-05 15:13 44.42972 20.11261 19934 ft 333 kts 239°
2026-05-05 15:14 44.41745 20.08497 20525 ft 335 kts 239°
2026-05-05 15:14 44.40509 20.05711 21101 ft 338 kts 239°
2026-05-05 15:14 44.39263 20.02904 21658 ft 341 kts 239°
2026-05-05 15:14 44.38007 20.00081 22211 ft 343 kts 239°
2026-05-05 15:15 44.36739 19.97229 22766 ft 346 kts 240°
2026-05-05 15:15 44.35463 19.94356 23328 ft 349 kts 240°
2026-05-05 15:15 44.34092 19.91538 23808 ft 353 kts 231°
2026-05-05 15:15 44.32293 19.89165 24248 ft 359 kts 218°
2026-05-05 15:16 44.30105 19.87392 24532 ft 372 kts 205°
2026-05-05 15:16 44.27573 19.86372 24651 ft 388 kts 191°
2026-05-05 15:16 44.24855 19.85796 24782 ft 401 kts 191°
2026-05-05 15:16 44.22057 19.85196 24929 ft 412 kts 191°
2026-05-05 15:17 44.19208 19.84571 25267 ft 417 kts 191°
2026-05-05 15:17 44.16329 19.83932 25674 ft 420 kts 191°
2026-05-05 15:17 44.13466 19.83293 26089 ft 423 kts 191°
2026-05-05 15:17 44.10541 19.82639 26497 ft 426 kts 191°
2026-05-05 15:18 44.07603 19.81986 26906 ft 429 kts 192°
2026-05-05 15:18 44.04650 19.81333 27305 ft 431 kts 192°
2026-05-05 15:18 44.01670 19.80678 27713 ft 434 kts 192°
2026-05-05 15:18 43.98680 19.80024 27934 ft 435 kts 192°
2026-05-05 15:19 43.95737 19.79387 27971 ft 420 kts 192°
2026-05-05 15:19 43.92868 19.78768 27974 ft 414 kts 192°
2026-05-05 15:19 43.90027 19.78147 27973 ft 412 kts 192°
2026-05-05 15:19 43.87197 19.77526 27975 ft 411 kts 192°
2026-05-05 15:20 43.84371 19.76905 27978 ft 411 kts 192°
2026-05-05 15:20 43.81556 19.76289 27982 ft 411 kts 192°
2026-05-05 15:20 43.78721 19.75669 27982 ft 410 kts 192°
2026-05-05 15:20 43.75899 19.75053 27981 ft 410 kts 192°
2026-05-05 15:21 43.73080 19.74442 27983 ft 410 kts 192°
2026-05-05 15:21 43.70259 19.73830 27985 ft 410 kts 192°
2026-05-05 15:21 43.67443 19.73219 27982 ft 410 kts 192°
2026-05-05 15:21 43.64619 19.72601 27988 ft 410 kts 193°
2026-05-05 15:22 43.61798 19.71980 27985 ft 410 kts 193°
2026-05-05 15:22 43.58982 19.71363 27988 ft 410 kts 192°
2026-05-05 15:22 43.56165 19.70752 27992 ft 410 kts 192°
2026-05-05 15:22 43.53344 19.70147 27991 ft 410 kts 192°
2026-05-05 15:23 43.50518 19.69544 27989 ft 410 kts 192°
2026-05-05 15:23 43.47700 19.68940 27994 ft 410 kts 193°
2026-05-05 15:23 43.44876 19.68332 27999 ft 411 kts 193°
2026-05-05 15:24 43.39232 19.67112 28007 ft 411 kts 192°
2026-05-05 15:24 43.33583 19.65890 28018 ft 411 kts 192°
2026-05-05 15:25 43.27932 19.64686 28023 ft 414 kts 192°
2026-05-05 15:25 43.25035 19.64065 28027 ft 427 kts 192°
2026-05-05 15:25 43.22080 19.63430 28029 ft 431 kts 192°
2026-05-05 15:26 43.16133 19.62159 28040 ft 433 kts 192°
2026-05-05 15:26 43.10184 19.60886 28046 ft 433 kts 192°
2026-05-05 15:27 43.04245 19.59628 27999 ft 428 kts 192°
2026-05-05 15:27 43.01314 19.59013 27528 ft 422 kts 192°
2026-05-05 15:27 42.98423 19.58406 27018 ft 418 kts 192°
2026-05-05 15:27 42.95560 19.57784 26500 ft 415 kts 194°
2026-05-05 15:28 42.92836 19.56634 26006 ft 407 kts 206°
2026-05-05 15:28 42.90241 19.55114 25508 ft 405 kts 206°
2026-05-05 15:28 42.87674 19.53622 24790 ft 398 kts 206°
2026-05-05 15:28 42.85130 19.52150 23960 ft 395 kts 205°
2026-05-05 15:29 42.82615 19.50699 23074 ft 391 kts 205°
2026-05-05 15:29 42.80131 19.49267 22184 ft 385 kts 205°
2026-05-05 15:29 42.77672 19.47848 21523 ft 383 kts 205°
2026-05-05 15:29 42.75229 19.46439 21100 ft 379 kts 205°
2026-05-05 15:30 42.72815 19.45046 20652 ft 375 kts 205°
2026-05-05 15:30 42.70422 19.43665 20193 ft 372 kts 205°
2026-05-05 15:30 42.68046 19.42297 19730 ft 369 kts 205°
2026-05-05 15:30 42.65690 19.40942 19290 ft 366 kts 205°
2026-05-05 15:31 42.63355 19.39601 18867 ft 363 kts 205°
2026-05-05 15:31 42.61039 19.38273 18442 ft 360 kts 205°
2026-05-05 15:31 42.58740 19.36957 17958 ft 357 kts 205°
2026-05-05 15:31 42.56471 19.35658 17500 ft 354 kts 204°
2026-05-05 15:32 42.54198 19.34357 17043 ft 351 kts 204°
2026-05-05 15:32 42.51960 19.33076 16563 ft 348 kts 204°
2026-05-05 15:32 42.49735 19.31802 16109 ft 345 kts 204°
2026-05-05 15:32 42.47533 19.30544 15670 ft 342 kts 204°
2026-05-05 15:33 42.45348 19.29300 15229 ft 339 kts 204°
2026-05-05 15:33 42.43183 19.28067 14784 ft 336 kts 204°
2026-05-05 15:33 42.41036 19.26845 14342 ft 334 kts 203°
2026-05-05 15:33 42.38952 19.25498 13964 ft 329 kts 212°
2026-05-05 15:34 42.37204 19.23599 13830 ft 317 kts 224°
2026-05-05 15:34 42.35646 19.21548 13688 ft 307 kts 224°
2026-05-05 15:34 42.34117 19.19563 13392 ft 303 kts 223°
2026-05-05 15:34 42.32598 19.17603 13060 ft 301 kts 223°
2026-05-05 15:35 42.31089 19.15658 12717 ft 299 kts 223°
2026-05-05 15:35 42.29587 19.13718 12364 ft 298 kts 223°
2026-05-05 15:35 42.28095 19.11791 12017 ft 296 kts 223°
2026-05-05 15:35 42.26608 19.09869 11674 ft 295 kts 224°
2026-05-05 15:36 42.25129 19.07957 11338 ft 294 kts 224°
2026-05-05 15:36 42.23657 19.06056 11015 ft 292 kts 223°
2026-05-05 15:36 42.22185 19.04168 10663 ft 291 kts 223°
2026-05-05 15:36 42.20720 19.02299 10321 ft 290 kts 223°
2026-05-05 15:37 42.19261 19.00440 9996 ft 285 kts 223°
2026-05-05 15:37 42.17851 18.98646 9617 ft 274 kts 223°
2026-05-05 15:37 42.17372 18.98037 9507 ft 271 kts 223°
2026-05-05 15:38 42.16796 18.97330 9410 ft 264 kts 223°
2026-05-05 15:39 42.15472 18.95670 9034 ft 256 kts 223°
2026-05-05 15:39 42.14247 18.93989 8675 ft 247 kts 236°
2026-05-05 15:39 42.13672 18.91820 8324 ft 251 kts 266°
2026-05-05 15:39 42.14048 18.89535 7974 ft 256 kts 298°
2026-05-05 15:40 42.15190 18.87682 7623 ft 259 kts 311°
2026-05-05 15:40 42.16568 18.86115 7276 ft 263 kts 331°
2026-05-05 15:40 42.18267 18.85164 6888 ft 267 kts 338°
2026-05-05 15:40 42.20056 18.84235 6024 ft 283 kts 338°
2026-05-05 15:41 42.21917 18.83271 5150 ft 290 kts 337°
2026-05-05 15:41 42.23798 18.82298 4630 ft 283 kts 338°
2026-05-05 15:41 42.25598 18.81374 4166 ft 266 kts 338°
2026-05-05 15:41 42.27263 18.80523 3716 ft 247 kts 338°
2026-05-05 15:42 42.28814 18.79728 3392 ft 227 kts 338°
2026-05-05 15:42 42.30222 18.79003 3038 ft 207 kts 338°
2026-05-05 15:42 42.31491 18.78346 2643 ft 184 kts 338°
2026-05-05 15:42 42.32613 18.77765 2523 ft 169 kts 339°
2026-05-05 15:43 42.33709 18.77239 2094 ft 166 kts 341°
2026-05-05 15:43 42.34774 18.76749 1715 ft 158 kts 341°
2026-05-05 15:43 42.35796 18.76293 1442 ft 150 kts 342°
2026-05-05 15:43 42.36802 18.75872 1047 ft 154 kts 343°
2026-05-05 15:44 42.37816 18.75354 640 ft 158 kts 330°
2026-05-05 15:44 42.38680 18.74456 363 ft 153 kts 316°
2026-05-05 15:44 42.39460 18.73517 124 ft 146 kts 319°
2026-05-05 15:44 42.40171 18.72675 42 ft 111 kts 318°
2026-05-05 15:45 42.40647 18.72116 39 ft 82 kts 319°
2026-05-05 15:45 42.40899 18.71816 38 ft 21 kts 323°
2026-05-05 15:45 42.40977 18.71825 45 ft 0 kts 36°
2026-05-05 15:45 42.40990 18.71842 45 ft 5 kts 45°
2026-05-05 15:46 42.41014 18.71857 43 ft 7 kts
2026-05-05 15:46 42.41069 18.71803 39 ft 3 kts 318°
2026-05-05 15:46 42.41080 18.71789 44 ft 1 kts 318°
2026-05-05 15:46 42.41083 18.71786 45 ft 0 kts 318°
2026-05-05 15:47 42.41085 18.71783 45 ft 4 kts 318°
2026-05-05 15:47 42.41124 18.71765 42 ft 4 kts 43°
2026-05-05 15:47 42.41119 18.71793 44 ft 0 kts 139°